• In Uzbekistan
  • List of Countries
  • For 7 days
  • Water Temperature
  • Satellite Maps
  • Weather Map
  • Weather Widgets
  • user-avatar
    Login

    Hourly Weather Pontypool

    Today, 12 December, Tuesday

    Time Temperature Precipitation Wind Pressure Humidity
    00:00 -3°C° 0 mm 2 mps 736 mmHg 89%
    01:00 -3°C° 0 mm 2 mps 736 mmHg 89%
    02:00 -3°C° 0 mm 2 mps 737 mmHg 89%
    03:00 -3°C° 0 mm 2 mps 738 mmHg 88%
    04:00 -3°C° 0 mm 2 mps 738 mmHg 88%
    05:00 -1°C° 0 mm 1 mps 739 mmHg 88%
    06:00 -1°C° 0 mm 1 mps 739 mmHg 88%
    07:00 -1°C° 0 mm 1 mps 740 mmHg 88%
    08:00 0°C° 0 mm 1 mps 740 mmHg 88%
    09:00 -2°C° 0 mm 2 mps 741 mmHg 88%
    10:00 -1°C° 0 mm 2 mps 741 mmHg 89%
    11:00 +1°C° 0 mm 2 mps 741 mmHg 90%
    12:00 +1°C° 0 mm 3 mps 741 mmHg 91%
    13:00 +1°C° 0 mm 3 mps 741 mmHg 92%
    14:00 +1°C° 0 mm 4 mps 741 mmHg 92%
    15:00 +1°C° 0 mm 4 mps 741 mmHg 92%
    16:00 +1°C° 0.1 mm 5 mps 740 mmHg 92%
    17:00 +1°C° 0.1 mm 5 mps 740 mmHg 92%
    18:00 +1°C° 0.1 mm 6 mps 740 mmHg 93%
    19:00 +2°C° 0.3 mm 6 mps 739 mmHg 94%
    20:00 +2°C° 0.3 mm 7 mps 739 mmHg 95%
    21:00 +3°C° 0.3 mm 7 mps 738 mmHg 96%
    22:00 +3°C° 0.3 mm 7 mps 738 mmHg 95%
    23:00 +3°C° 0.3 mm 6 mps 738 mmHg 95%

    Tomorrow, 13 December, Wednesday

    Time Temperature Precipitation Wind Pressure Humidity
    00:00 +4°C° 0.3 mm 6 mps 737 mmHg 95%
    01:00 +3°C° 0 mm 5 mps 737 mmHg 93%
    02:00 +2°C° 0 mm 5 mps 737 mmHg 92%
    03:00 +2°C° 0 mm 5 mps 738 mmHg 91%
    04:00 +2°C° 0 mm 5 mps 737 mmHg 91%
    05:00 +2°C° 0 mm 5 mps 737 mmHg 91%
    06:00 +2°C° 0 mm 5 mps 737 mmHg 91%
    07:00 +3°C° 0.3 mm 6 mps 737 mmHg 91%
    08:00 +3°C° 0.3 mm 6 mps 736 mmHg 92%
    09:00 +3°C° 0.3 mm 6 mps 736 mmHg 93%
    10:00 +4°C° 0.6 mm 7 mps 735 mmHg 93%
    11:00 +4°C° 0.6 mm 7 mps 734 mmHg 92%
    12:00 +5°C° 0.6 mm 8 mps 734 mmHg 92%
    13:00 +4°C° 0.7 mm 8 mps 733 mmHg 88%
    14:00 +4°C° 0.7 mm 8 mps 733 mmHg 84%
    15:00 +2°C° 0.7 mm 9 mps 733 mmHg 80%
    16:00 +2°C° 0.1 mm 8 mps 733 mmHg 80%
    17:00 +1°C° 0.1 mm 8 mps 733 mmHg 80%
    18:00 0°C° 0.1 mm 8 mps 733 mmHg 80%
    19:00 0°C° 0.5 mm 9 mps 732 mmHg 77%
    20:00 0°C° 0.5 mm 10 mps 732 mmHg 74%
    21:00 -1°C° 0.5 mm 11 mps 732 mmHg 72%
    22:00 0°C° 0 mm 10 mps 733 mmHg 72%
    23:00 -1°C° 0 mm 9 mps 733 mmHg 72%

    Day after tomorrow, 14 December, Thursday

    Time Temperature Precipitation Wind Pressure Humidity
    00:00 -1°C° 0 mm 8 mps 734 mmHg 73%
    01:00 -1°C° 0.1 mm 8 mps 734 mmHg 74%
    02:00 -1°C° 0.1 mm 8 mps 733 mmHg 75%
    03:00 -1°C° 0.1 mm 8 mps 733 mmHg 76%
    04:00 -1°C° 0.1 mm 8 mps 732 mmHg 77%
    05:00 -1°C° 0.1 mm 8 mps 732 mmHg 77%
    06:00 0°C° 0.1 mm 7 mps 731 mmHg 78%
    07:00 -1°C° 0.2 mm 7 mps 731 mmHg 79%
    08:00 -1°C° 0.2 mm 7 mps 731 mmHg 79%
    09:00 -1°C° 0.2 mm 6 mps 730 mmHg 80%
    10:00 0°C° 0.1 mm 7 mps 730 mmHg 77%
    11:00 0°C° 0.1 mm 7 mps 730 mmHg 75%
    12:00 +2°C° 0.1 mm 7 mps 730 mmHg 72%
    13:00 +2°C° 0.4 mm 7 mps 729 mmHg 75%
    14:00 +1°C° 0.4 mm 8 mps 729 mmHg 77%
    15:00 0°C° 0.4 mm 8 mps 728 mmHg 80%
    16:00 +1°C° 0.4 mm 8 mps 728 mmHg 79%
    17:00 +1°C° 0.4 mm 8 mps 727 mmHg 78%
    18:00 +1°C° 0.4 mm 9 mps 727 mmHg 78%
    19:00 +1°C° 0.1 mm 8 mps 727 mmHg 79%
    20:00 +1°C° 0.1 mm 8 mps 727 mmHg 81%
    21:00 +1°C° 0.1 mm 8 mps 727 mmHg 83%
    22:00 +1°C° 0.1 mm 8 mps 728 mmHg 83%
    23:00 +1°C° 0.1 mm 8 mps 729 mmHg 83%

    15 December, Friday

    Time Temperature Precipitation Wind Pressure Humidity
    00:00 +1°C° 0.1 mm 8 mps 730 mmHg 83%
    01:00 0°C° 0 mm 8 mps 731 mmHg 82%
    02:00 0°C° 0 mm 8 mps 732 mmHg 81%
    03:00 0°C° 0 mm 8 mps 733 mmHg 80%
    04:00 0°C° 0 mm 8 mps 733 mmHg 80%
    05:00 0°C° 0 mm 8 mps 734 mmHg 80%
    06:00 +1°C° 0 mm 9 mps 734 mmHg 80%
    07:00 0°C° 0 mm 8 mps 735 mmHg 79%
    08:00 0°C° 0 mm 7 mps 736 mmHg 79%
    09:00 +1°C° 0 mm 6 mps 736 mmHg 78%
    10:00 +2°C° 0 mm 6 mps 737 mmHg 77%
    11:00 +2°C° 0 mm 6 mps 738 mmHg 76%
    12:00 +3°C° 0 mm 6 mps 739 mmHg 75%
    13:00 +3°C° 0 mm 6 mps 739 mmHg 77%
    14:00 +3°C° 0 mm 6 mps 740 mmHg 79%
    15:00 +3°C° 0 mm 6 mps 740 mmHg 81%
    16:00 +2°C° 0 mm 6 mps 741 mmHg 82%
    17:00 +1°C° 0 mm 5 mps 741 mmHg 84%
    18:00 +1°C° 0 mm 5 mps 742 mmHg 86%
    19:00 0°C° 0 mm 5 mps 743 mmHg 86%
    20:00 0°C° 0 mm 4 mps 743 mmHg 86%
    21:00 0°C° 0 mm 4 mps 744 mmHg 87%
    22:00 0°C° 0 mm 4 mps 744 mmHg 87%
    23:00 0°C° 0 mm 4 mps 744 mmHg 88%

    16 December, Saturday

    Time Temperature Precipitation Wind Pressure Humidity
    00:00 0°C° 0 mm 4 mps 744 mmHg 88%
    01:00 -1°C° 0 mm 4 mps 745 mmHg 88%
    02:00 -1°C° 0 mm 4 mps 745 mmHg 88%
    03:00 -1°C° 0 mm 4 mps 745 mmHg 88%
    04:00 -1°C° 0 mm 4 mps 745 mmHg 87%
    05:00 -1°C° 0 mm 4 mps 745 mmHg 87%
    06:00 -1°C° 0 mm 4 mps 745 mmHg 87%
    07:00 0°C° 0 mm 3 mps 746 mmHg 87%
    08:00 0°C° 0 mm 3 mps 746 mmHg 87%
    09:00 0°C° 0 mm 3 mps 747 mmHg 86%
    10:00 +1°C° 0 mm 3 mps 747 mmHg 83%
    11:00 +2°C° 0 mm 3 mps 748 mmHg 79%
    12:00 +3°C° 0 mm 3 mps 748 mmHg 75%
    13:00 +3°C° 0 mm 3 mps 748 mmHg 77%
    14:00 +3°C° 0 mm 2 mps 748 mmHg 79%
    15:00 +3°C° 0 mm 2 mps 749 mmHg 81%
    16:00 +2°C° 0 mm 2 mps 749 mmHg 82%
    17:00 +2°C° 0 mm 2 mps 749 mmHg 84%
    18:00 +1°C° 0 mm 2 mps 749 mmHg 85%
    19:00 +1°C° 0 mm 2 mps 750 mmHg 85%
    20:00 +1°C° 0 mm 2 mps 750 mmHg 84%
    21:00 +1°C° 0 mm 2 mps 750 mmHg 84%
    22:00 +2°C° 0 mm 2 mps 750 mmHg 85%
    23:00 +1°C° 0 mm 3 mps 751 mmHg 86%

    17 December, Sunday

    Time Temperature Precipitation Wind Pressure Humidity
    00:00 +1°C° 0 mm 3 mps 751 mmHg 86%
    01:00 +1°C° 0 mm 3 mps 751 mmHg 88%
    02:00 +2°C° 0 mm 2 mps 750 mmHg 89%
    03:00 +1°C° 0 mm 2 mps 750 mmHg 90%
    04:00 +2°C° 0 mm 2 mps 750 mmHg 90%
    05:00 +2°C° 0 mm 2 mps 750 mmHg 90%
    06:00 +2°C° 0 mm 2 mps 750 mmHg 91%
    07:00 +2°C° 0 mm 2 mps 750 mmHg 91%
    08:00 +2°C° 0 mm 2 mps 751 mmHg 91%
    09:00 +2°C° 0 mm 2 mps 751 mmHg 91%
    10:00 +3°C° 0 mm 2 mps 751 mmHg 89%
    11:00 +4°C° 0 mm 2 mps 751 mmHg 86%
    12:00 +5°C° 0 mm 2 mps 751 mmHg 84%
    13:00 +5°C° 0 mm 2 mps 751 mmHg 86%
    14:00 +5°C° 0 mm 2 mps 751 mmHg 87%
    15:00 +5°C° 0 mm 2 mps 751 mmHg 88%
    16:00 +3°C° 0 mm 3 mps 751 mmHg 89%
    17:00 +3°C° 0 mm 3 mps 750 mmHg 90%
    18:00 +3°C° 0 mm 3 mps 750 mmHg 90%
    19:00 +3°C° 0 mm 4 mps 750 mmHg 91%
    20:00 +3°C° 0 mm 4 mps 750 mmHg 91%
    21:00 +2°C° 0 mm 5 mps 750 mmHg 91%
    22:00 +3°C° 0.1 mm 5 mps 750 mmHg 91%
    23:00 +3°C° 0.1 mm 6 mps 750 mmHg 91%
    Show more